www.pogodaiklimat.ru

Погода и климат >> Архив погоды >> Таиланд >> Самутрудкан Агромет


ПОГОДА в Самутрудкан Агромете

  • Прогноз погоды в Самутрудкан Агромете
  • Монитор погоды в Самутрудкан Агромете

АРХИВ ПОГОДЫ в Самутрудкан Агромете

Время (UTC), дата Ветер
(напр.,м/с)
 
Видим.   Явления Облачность Т
(С)
Тd
(С)
f
(%)
Тe
(С)
Тes
(С)
Комфортность P
(гПа)
Po
(гПа)
Тmin
(С)
Tmax
(С)
R
(мм)
R24
(мм)
S
(см)
09 19.06 ЮЗ 8 10 км 8/3 600 м
[Cu med, cong Ac trans Cs]
+31.4 +25.8 72 +46 +47 опасность
перегрева
1005.6 1005.1
12 19.06 ЮЗ 8 10 км 9/3 600 м
[Sc Ac und Cs]
+30.3 +24.9 73 +43 +43 опасность
перегрева
1005.9 1005.4 +32.3
15 19.06 ЮВ 4 10 км {дождь} 10/3 600 м
[Sc Ac und Cs]
+25.9 +22.9 84 +35 +35 очень
душно
1007.4 1006.9 6
18 19.06 ЮЗ 6 10 км {дождь} 10/3 600 м
[Sc Ac und Cs]
+28.1 +25.1 84 +41 +41 опасность
перегрева
1007.6 1007.2 6
21 19.06 ЮЗ 3 10 км 5/1 600 м
[Cu med, cong Cs]
+27.8 +25.2 86 +40 +40 очень
душно
1006.6 1006.2
00 20.06 штиль 0 10 км 6/1 600 м
[Cu med, cong Ac trans Cs]
+28.0 +26.2 90 +42 +44 опасность
перегрева
1008.4 1007.9 +25.7
03 20.06 ЮЗ 3 10 км 3/0
[Cs]
+31.0 +26.1 75 +46 +58 опасность
перегрева
1009.0 1008.6
06 20.06 ЮЗ 9 10 км 3/0
[Cs]
+31.7 +26.4 74 +48 +50 опасность
перегрева
1007.7 1007.2
09 20.06 ЮЗ 6 10 км 4/0
[Cs]
+32.0 +25.7 69 +47 +50 опасность
перегрева
1005.8 1005.4
12 20.06 ЮЗ 8 10 км 6/3 600 м
[Cu med, cong Cs]
+30.0 +25.8 78 +45 +45 опасность
перегрева
1006.2 1005.8 +32.0
15 20.06 ЮЗ 5 10 км 6/3 600 м
[Sc Cs]
+29.4 +26.3 83 +45 +45 опасность
перегрева
1008.2 1007.8
18 20.06 штиль 0 10 км 8/3 600 м
[Cu med, cong Ac trans Cs]
+29.0 +26.2 85 +44 +44 опасность
перегрева
1007.1 1006.6
21 20.06 штиль 0 10 км 6/0
[Cs]
+28.7 +26.6 88 +44 +44 опасность
перегрева
1006.9 1006.4
00 21.06 штиль 0 10 км 4/3 600 м
[Cu hum Cs]
+29.2 +26.1 83 +44 +45 опасность
перегрева
1007.9 1007.5 +28.7
03 21.06 ЮЗ 2 10 км 4/3 600 м
[Sc Cs]
+32.1 +24.1 63 +44 +55 опасность
перегрева
1008.3 1007.8
06 21.06 ЮЗ 7 10 км 4/3 600 м
[Sc Cs]
+32.8 +24.7 62 +46 +50 опасность
перегрева
1006.4 1006.0
09 21.06 ЮЗ 5 10 км 4/3 600 м
[Sc Cs]
+32.8 +24.9 63 +46 +49 опасность
перегрева
1004.4 1004.0
12 21.06 ЮЗ 4 10 км 4/1 600 м
[Sc Ac trans Cs]
+31.6 +25.4 70 +46 +46 опасность
перегрева
1004.5 1004.1 +33.9
15 21.06 ЮЗ 7 10 км 5/1 600 м
[Sc Cs]
+31.0 +26.4 77 +47 +47 опасность
перегрева
1006.1 1005.7
18 21.06 ЮЗ 5 10 км 5/1 600 м
[Sc Cs]
+29.7 +26.8 84 +46 +46 опасность
перегрева
1005.7 1005.3
21 21.06 ЮЗ 2 10 км 5/1 600 м
[Sc Ac trans Cs]
+29.5 +26.9 86 +46 +46 опасность
перегрева
1005.2 1004.7
00 22.06 ЮЗ 3 10 км 8/1 600 м
[Sc Ac trans Cs]
+30.0 +24.9 74 +43 +44 опасность
перегрева
1005.4 1004.9 +29.0
03 22.06 ЮЗ 4 10 км 6/0
[Cs]
+33.5 +24.2 58 +45 +55 опасность
перегрева
1006.8 1006.4
06 22.06 ЮЗ 8 10 км 5/1 600 м
[Cu med, cong Cs]
+33.0 +25.3 64 +47 +50 опасность
перегрева
1005.5 1005.1
09 22.06 ЮЗ 8 10 км 9/3 600 м
[Sc Cs]
+31.8 +25.8 71 +47 +48 опасность
перегрева
1002.7 1002.3
12 22.06 ЮЗ 10 10 км 8/1 600 м
[Sc Ac lent Cs]
+31.0 +26.1 75 +46 +46 опасность
перегрева
1002.9 1002.5 +34.9
15 22.06 ЮЗ 8 10 км 5/0
[Cs]
+30.5 +26.9 81 +48 +48 опасность
перегрева
1004.8 1004.3
18 22.06 ЮЗ 6 10 км 6/0
[Cs]
+30.5 +27.0 82 +48 +48 опасность
перегрева
1004.7 1004.2
21 22.06 ЮЗ 4 10 км 8/3 600 м
[Sc Cs]
+29.8 +27.3 86 +47 +47 опасность
перегрева
1003.8 1003.4
00 23.06 ЮЗ 6 10 км 8/1 600 м
[Sc Ac trans Cs]
+30.0 +25.8 78 +45 +45 опасность
перегрева
1004.5 1004.1 +29.5
03 23.06 ЮЗ 4 10 км 6/3 600 м
[Cu med, cong Ac trans Cs]
+31.8 +25.8 71 +47 +53 опасность
перегрева
1005.3 1004.9
06 23.06 ЮЗ 5 10 км 8/3 600 м
[Sc Ac trans Cs]
+32.7 +25.1 64 +46 +51 опасность
перегрева
1004.6 1004.2
09 23.06 ЮВ 6 10 км 8/4 600 м
[Sc Ac trans Cs]
+32.0 +24.9 66 +45 +47 опасность
перегрева
1003.6 1003.2
12 23.06 ЮЗ 4 10 км 8/4 600 м
[Sc Ac trans Cs]
+30.1 +25.4 76 +44 +44 опасность
перегрева
1004.2 1003.8 +32.8
15 23.06 Ю 5 5000 м гроза, ливневой дождь 8/4 300 м
[Cb cap Ac As Cs]
+29.1 +26.4 85 +44 +44 опасность
перегрева
1005.2 1004.8 1
18 23.06 штиль 0 10 км {гроза} 8/3 600 м
[Sc Ac trans Cs]
+28.8 +27.0 90 +45 +45 опасность
перегрева
1003.8 1003.4 1
21 23.06 ЮЗ 5 10 км 6/3 600 м
[Sc Ac trans Cs]
+28.0 +26.6 92 +43 +43 опасность
перегрева
1003.1 1002.7
00 24.06 ЮВ 5 10 км 8/4 600 м
[Sc Ac As Cs]
+28.2 +25.1 83 +41 +41 опасность
перегрева
1006.9 1006.4 +28.0
03 24.06 ЮЗ 2 10 км 9/3 600 м
[Sc Ac trans Cs]
+30.2 +24.9 73 +43 +49 опасность
перегрева
1007.9 1007.5
06 24.06 ЮЗ 8 10 км 10/3 600 м
[Sc Ac und Cs]
+31.0 +26.1 75 +46 +48 опасность
перегрева
1006.5 1006.0
09 24.06 ЮВ 7 10 км 10/3 600 м
[Sc Ac As Cs]
+30.4 +25.8 76 +45 +46 опасность
перегрева
1005.2 1004.7
12 24.06 ЮЗ 4 10 км 10/3 600 м
[Sc Ac und Cs]
+30.0 +26.7 83 +47 +47 опасность
перегрева
1006.2 1005.7 +32.4
15 24.06 ЮВ 4 10 км гроза без осадков 10/3 300 м
[Cb cap Ac und Cs]
+29.0 +26.2 85 +44 +44 опасность
перегрева
1007.6 1007.2 3
18 24.06 ЮЗ 4 10 км {гроза, дождь} 10/3 600 м
[Sc Ac und Cs]
+27.0 +25.6 92 +40 +40 очень
душно
1007.0 1006.6 2
21 24.06 штиль 0 6000 м слаб. дождь 10/4 600 м
[Sc Ac und Cs]
+28.0 +26.6 92 +43 +43 опасность
перегрева
1006.3 1005.9 1
00 25.06 ЮВ 2 10 км {дождь} 10/3 600 м
[Sc Ac As Cs]
+27.5 +26.4 94 +42 +43 опасность
перегрева
1007.8 1007.4 +27.0 6
03 25.06 ЮЗ 6 10 км 6/3 600 м
[Sc Ac trans Cs]
+30.9 +27.0 80 +49 +52 опасность
перегрева
1009.2 1008.7
06 25.06 ЮЗ 11 10 км 8/3 600 м
[Sc Ac trans Cs]
+31.9 +26.8 74 +49 +49 опасность
перегрева
1007.6 1007.2
09 25.06 ЮЗ 9 10 км 8/3 600 м
[Sc Ac und Cs]
+30.7 +25.3 73 +45 +45 опасность
перегрева
1005.7 1005.3
12 25.06 ЮЗ 6 10 км 10/3 600 м
[Sc Ac As Cs]
+29.0 +25.0 79 +42 +42 опасность
перегрева
1006.7 1006.3 +32.2
15 25.06 ЮЗ 4 10 км 8/3 600 м
[Sc Ac und Cs]
+29.5 +25.1 77 +43 +43 опасность
перегрева
1008.8 1008.4
18 25.06 ЮЗ 9 10 км 8/3 600 м
[Sc Ac trans Cs]
+29.5 +25.2 78 +43 +43 опасность
перегрева
1007.8 1007.4
21 25.06 ЮЗ 6 10 км 8/3 600 м
[Sc Ac trans Cs]
+28.2 +25.4 85 +41 +41 опасность
перегрева
1006.9 1006.4
00 26.06 ЮЗ 7 10 км 8/3 600 м
[Sc Ac und Cs]
+29.3 +24.6 76 +42 +42 опасность
перегрева
1007.6 1007.1 +28.0
03 26.06 ЮЗ 4 10 км 6/3 600 м
[Cu hum Ac trans Cs]
+31.2 +24.8 69 +44 +50 опасность
перегрева
1008.9 1008.4
06 26.06 ЮЗ 8 10 км 4/3 600 м
[Cu hum Cs]
+31.5 +25.1 69 +45 +48 опасность
перегрева
1007.2 1006.7

 

Местоположение метеостанции Самутрудкан Агромет (Таиланд): широта 13.52 долгота 100.75 высота над уровнем моря 3 м.

В архиве по умолчанию представлена погода в Самутрудкан Агромете за последнюю неделю. Архивные данные за месяц целиком и за предыдущие месяцы, начиная с января 2011 года, Вы можете получить, выбрав интересующий диапазон дат из раскрывающегося списка и нажав кнопку "Ввод!".


*Определитесь, кто Вы:
робот инопланетянин человек

Внимание! Время в таблицах - всемирное. Для получения местного времени необходимо прибавить поправку, которая равна 7 ч.

Смотрите также архив погоды в соседних городах и на ближайших метеорологических станциях:

Погода в Аэропорту Суварнабхуми (Таиланд) (18 км)
Погода в Бангна Агромете (Таиланд) (22 км)
Погода в Бангкок Пилот (Таиланд) (22 км)
Погода в Бангкоке 2 (Таиланд) (28 км)
Погода в Чонбури (Таиланд) (30 км)
Погода в Ратбури (Таиланд) (30 км)
Погода в Бангкоке (Таиланд) (31 км)
Погода на Ко Сичан (Таиланд) (39 км)
Погода в Дон Муанг (Таиланд) (47 км)
Погода в Патхумтхани (Таиланд) (66 км)

Пояснения к столбцам:

Ветер - указаны скорость ветра в м/с - средняя за 10 мин, порывы в срок и между сроками (в фигурных скобках) и направление, откуда дует ветер: С - северный, СВ - северо-восточный, В - восточный, ЮВ - юго-восточный, Ю - южный, ЮЗ - юго-западный, З - западный, СЗ - северо-западный.
Видимость - горизонтальная дальность видимости в метрах или километрах. При видимости от 1 до 10 км при отсутствии осадков обычно наблюдается дымка, при ухудшении видимости до 1 км и менее - туман. В сухую погоду видимость может ухудшаться дымом, пылью или мглою.
Явления - указаны атмосферные явления, наблюдавшиеся в срок или в последний час перед сроком; фигурными скобками обозначены явления, наблюдавшиеся между сроками (за 1-3 часа до срока); квадратными скобками обозначены град или гололедные отложения с указанием их диаметра в мм.
Облачность - указаны через наклонную черту общая и нижняя облачность в баллах и высота нижней границы облаков в метрах; квадратными скобками обозначены формы облаков: Ci - перистые, Cs - перисто-слоистые, Cc - перисто-кучевые, Ac - высококучевые, As - высокослоистые, Sc - слоисто-кучевые, Ns - слоисто-дождевые, Cu - кучевые, Cb - кучево-дождевые. Подробнее классификацию облаков см. в Атласе облаков (PDF).
T - Температура воздуха - температура, измеренная на высоте 2 м над землей.
Td - Температура точки росы - температура, при понижении до которой содержащийся в воздухе водяной пар достигнет насыщения.
f - Относительная влажность воздуха - влажноcть воздуха, измеренная на высоте 2 м над землей.
Te - Эффективная температура - температура, которую ощущает одетый по сезону человек в тени. Характеристика душности погоды. При расчете учитывается влияние влажности воздуха и скорости ветра на теплоощущения человека.
Tes - Эффективная температура на солнце - температура, которую ощущает человек, с поправкой на солнечный нагрев. Характеристика знойности погоды. Зависит от высоты солнца над горизонтом, облачности и скорости ветра. Ночью, в пасмурную погоду, а также при ветре 12 м/с и более поправка равна нулю.
P - Атмосферное давление - приведенное к уровню моря атмосферное давление.
Po - Атмосферное давление - измеренное на уровне метеостанции атмосферное давление.
Tmin - Минимальная температура - минимум температуры воздуха на высоте 2 м над землей.
Tmax - Максимальная температура - максимум температуры воздуха на высоте 2 м над землей.
R - Количество осадков - Количество выпавших осадков за период времени, мм. При наведении курсора мыши на число - период времени, за который выпало указанное количество осадков.
R24 - Количество осадков - Количество выпавших осадков за 24 часа, мм.
S - Снежный покров - Высота снежного покрова, см. При наведении курсора мыши на число - состояние снежного покрова и степень покрытия местности в баллах.